PDT,Max TemperatureF,Mean TemperatureF,Min TemperatureF,Max Dew PointF,MeanDew PointF,Min DewpointF,Max Humidity, Mean Humidity, Min Humidity, Max Sea Level PressureIn, Mean Sea Level PressureIn, Min Sea Level PressureIn, Max VisibilityMiles, Mean VisibilityMiles, Min VisibilityMiles, Max Wind SpeedMPH, Mean Wind SpeedMPH, Max Gust SpeedMPH,PrecipitationIn, CloudCover, Events, WindDirDegrees
2014-4-1,54,48,41,46,43,41,100,83,66,29.91,29.86,29.80,10,6,2,22,5,31,0.48,7,Rain,162
2014-4-2,62,52,42,44,43,40,100,76,51,30.08,29.98,29.86,10,10,10,13,5,17,0.00,5,,327
2014-4-3,62,52,41,47,44,37,100,72,44,30.11,30.07,30.01,10,6,1,14,4,18,0.00,7,,301
2014-4-4,58,53,47,50,48,46,100,86,72,30.03,29.99,29.95,10,8,3,13,4,18,0.14,7,Rain,234
2014-4-5,70,54,38,50,44,39,100,73,45,30.17,30.09,30.04,10,5,0,13,4,16,0.00,1,Fog,253
2014-4-6,80,62,43,55,49,43,93,65,36,30.22,30.14,30.07,10,10,10,12,3,16,T,1,,303
2014-4-7,84,66,48,56,50,42,100,62,23,30.13,30.08,30.03,10,10,6,14,3,16,0.00,0,,221
2014-4-8,81,65,48,58,52,47,96,69,42,30.08,30.04,29.99,10,10,10,10,4,14,0.00,2,,188
2014-4-9,71,59,47,55,49,46,100,72,44,30.08,30.03,29.96,10,5,0,13,5,19,0.00,4,Fog,161
2014-4-10,78,63,47,55,50,47,100,73,46,30.03,29.97,29.87,10,6,0,15,4,19,0.00,3,Fog,154
2014-4-11,67,57,47,54,49,46,100,82,63,29.94,29.90,29.83,10,5,0,14,6,18,0.00,6,Fog,158
2014-4-12,64,57,50,50,48,46,89,75,60,29.92,29.88,29.84,10,9,6,15,5,18,0.00,6,,218
2014-4-13,73,61,49,55,49,47,100,75,49,30.04,29.97,29.91,10,9,4,14,4,17,0.00,4,,161
2014-4-14,74,60,46,57,50,45,100,79,57,30.10,30.04,29.99,10,5,0,15,5,17,0.00,3,Fog,161
2014-4-15,73,61,49,56,50,48,100,75,49,30.04,29.96,29.86,10,7,2,14,4,18,0.00,5,,157
2014-4-16,79,62,44,53,46,43,100,65,30,29.90,29.85,29.78,10,8,0,14,4,17,0.00,2,Fog,187
2014-4-17,78,62,46,57,47,40,100,66,31,29.83,29.80,29.77,10,9,5,23,6,30,0.00,1,,279
2014-4-18,72,59,45,52,47,44,93,69,44,29.90,29.86,29.82,10,10,10,15,5,18,0.00,1,,163
2014-4-19,72,57,42,54,46,40,100,68,35,30.08,30.00,29.91,10,7,0,17,5,22,0.00,4,Fog,200
2014-4-20,81,62,43,50,46,39,100,63,25,30.12,30.08,30.01,10,9,2,14,4,17,0.00,0,,227
2014-4-21,70,57,43,49,43,27,93,57,21,30.04,29.99,29.94,10,10,7,17,6,21,T,5,,206
2014-4-22,66,57,47,50,40,35,89,62,34,30.10,30.03,29.94,10,10,10,23,10,27,0.00,3,,303
2014-4-23,70,56,41,48,41,36,83,59,35,30.13,30.08,30.04,10,10,10,20,7,24,0.00,2,,278
2014-4-24,70,59,47,54,50,46,100,76,52,30.08,30.02,29.94,10,10,10,23,6,26,T,5,Rain,238
2014-4-25,58,51,43,51,47,41,100,86,71,29.91,29.82,29.75,10,10,4,16,5,22,0.08,6,Rain-Thunderstorm,247
2014-4-26,64,50,37,44,39,36,100,73,40,30.05,29.93,29.84,10,9,0,21,4,28,0.00,3,Fog,262
2014-4-27,66,58,49,52,48,43,100,74,48,30.09,30.03,29.99,10,6,2,16,5,21,0.03,6,Rain,159
2014-4-28,74,57,40,47,43,37,100,65,29,30.21,30.16,30.12,10,10,7,13,4,18,0.00,1,,245
2014-4-29,92,69,45,55,46,36,82,48,14,30.19,30.10,30.02,10,10,10,17,6,21,0.00,1,,343
2014-4-30,91,69,47,51,45,35,86,51,16,30.05,30.01,29.97,10,10,10,16,5,22,0.00,2,,224